EW6810 Weather Reports


Display with metric or nautical units.
time (UTC)temp
F
wind
direction
speed
MPH
gust
MPH
rain 1hr
in
rain 24hr
in
rain mn
in
humidity
%
barometer
mb
20260831115524 52 331 0.0 4.0 0.00 0.00 0.00 90 1012.0
20260831115024 53 333 1.0 4.0 0.00 0.00 0.00 90 1012.1
20260831114523 53 264 0.0 5.0 0.00 0.00 0.00 90 1012.1
20260831114024 53 262 0.0 5.0 0.00 0.00 0.00 90 1012.2
20260831113521 53 263 0.0 2.0 0.00 0.00 0.00 90 1012.2
20260831113021 53 260 0.0 2.0 0.00 0.00 0.00 90 1012.4
20260831112521 53 261 0.0 2.0 0.00 0.00 0.00 90 1012.4
20260831112020 53 261 0.0 2.0 0.00 0.00 0.00 90 1012.4
20260831111527 53 261 0.0 3.0 0.00 0.00 0.00 90 1012.5
20260831111022 53 260 0.0 3.0 0.00 0.00 0.00 90 1012.6
20260831110519 53 167 0.0 6.0 0.00 0.00 0.00 90 1012.6
20260831110017 53 286 0.0 6.0 0.00 0.00 0.00 90 1012.6
20260831105516 53 228 0.0 5.0 0.00 0.00 0.00 90 1012.7
20260831105016 54 296 0.0 3.0 0.00 0.00 0.00 90 1012.8
20260831104524 54 329 0.0 2.0 0.00 0.00 0.00 90 1012.8
20260831104014 54 240 0.0 3.0 0.00 0.00 0.00 90 1012.8
20260831103514 54 240 0.0 3.0 0.00 0.00 0.00 90 1012.7
20260831103035 54 46 0.0 2.0 0.00 0.00 0.00 90 1012.8
20260831102513 54 46 0.0 2.0 0.00 0.00 0.00 90 1012.8
20260831102012 54 46 0.0 3.0 0.00 0.00 0.00 90 1012.9
20260831101512 54 46 0.0 3.0 0.00 0.00 0.00 89 1012.8
20260831101010 54 344 0.0 3.0 0.00 0.00 0.00 89 1012.9
20260831100511 54 272 1.0 3.0 0.00 0.00 0.00 89 1012.9
20260831100011 54 268 0.0 2.0 0.00 0.00 0.00 89 1012.9
20260831095508 55 276 0.0 7.0 0.00 0.00 0.00 89 1013.0
20260831095008 55 276 1.0 7.0 0.00 0.00 0.00 89 1013.1
20260831094513 55 234 0.0 3.0 0.00 0.00 0.00 89 1013.2
20260831094006 55 32 0.0 2.0 0.00 0.00 0.00 89 1013.2
20260831093505 55 32 0.0 4.0 0.00 0.00 0.00 89 1013.3
20260831093006 55 34 0.0 4.0 0.00 0.00 0.00 89 1013.4
20260831092504 55 358 0.0 5.0 0.00 0.00 0.00 89 1013.6
20260831092004 55 264 0.0 6.0 0.00 0.00 0.00 89 1013.5
20260831091503 55 279 0.0 6.0 0.00 0.00 0.00 89 1013.5
20260831091002 55 276 0.0 3.0 0.00 0.00 0.00 88 1013.4
20260831090504 56 277 0.0 3.0 0.00 0.00 0.00 89 1013.3
20260831090001 56 314 0.0 2.0 0.00 0.00 0.00 88 1013.4
20260831085600 56 314 0.0 3.0 0.00 0.00 0.00 88 1013.5
20260831085200 56 236 0.0 3.0 0.00 0.00 0.00 88 1013.5
20260831084559 56 196 0.0 3.0 0.00 0.00 0.00 88 1013.6
20260831084057 56 196 0.0 6.0 0.00 0.00 0.00 88 1013.8
20260831083600 56 202 3.0 7.0 0.00 0.00 0.00 88 1013.9
20260831083057 56 300 1.0 5.0 0.00 0.00 0.00 87 1013.9
20260831082555 57 256 1.0 9.0 0.00 0.00 0.00 87 1013.9
20260831082057 57 353 2.0 9.0 0.00 0.00 0.00 87 1014.0
20260831081554 57 284 1.0 4.0 0.00 0.00 0.00 87 1013.9
20260831081054 57 1 0.0 3.0 0.00 0.00 0.00 86 1014.0
20260831080553 57 1 1.0 3.0 0.00 0.00 0.00 86 1014.1
20260831075551 57 266 0.0 2.0 0.00 0.00 0.00 87 1014.2
20260831075051 57 266 0.0 1.0 0.00 0.00 0.00 87 1014.1
20260831074550 57 266 0.0 1.0 0.00 0.00 0.00 87 1014.2
20260831074050 57 266 0.0 1.0 0.00 0.00 0.00 87 1014.2
20260831073550 57 266 0.0 5.0 0.00 0.00 0.00 87 1014.1
20260831073049 57 266 1.0 5.0 0.00 0.00 0.00 87 1014.1
20260831072548 57 340 0.0 4.0 0.00 0.00 0.00 87 1014.2
20260831072049 57 304 1.0 4.0 0.00 0.00 0.00 87 1014.2
20260831071548 58 40 0.0 1.0 0.00 0.00 0.00 87 1014.2
20260831071047 58 40 0.0 1.0 0.00 0.00 0.00 87 1014.2
20260831070551 58 40 0.0 1.0 0.00 0.00 0.00 87 1014.3
20260831070047 58 40 0.0 0.0 0.00 0.00 0.00 87 1014.4
20260831065546 58 40 0.0 2.0 0.00 0.00 0.00 87 1014.3
20260831065046 58 40 0.0 4.0 0.00 0.00 0.00 87 1014.4
20260831064545 58 53 0.0 4.0 0.00 0.00 0.00 87 1014.4
20260831064045 57 106 0.0 4.0 0.00 0.00 0.00 88 1014.5
20260831063544 58 277 1.0 3.0 0.00 0.00 0.00 88 1014.4
20260831063047 57 265 0.0 2.0 0.00 0.00 0.00 88 1014.4
20260831062543 57 265 0.0 2.0 0.00 0.00 0.00 88 1014.4
20260831062043 57 267 0.0 2.0 0.00 0.00 0.00 88 1014.5
20260831061542 58 250 0.0 2.0 0.00 0.00 0.00 88 1014.6
20260831061042 58 250 0.0 1.0 0.00 0.00 0.00 88 1014.6
20260831060542 58 250 0.0 1.0 0.00 0.00 0.00 88 1014.6
20260831060043 58 250 0.0 1.0 0.00 0.00 0.00 88 1014.6
20260831055541 58 250 0.0 1.0 0.00 0.00 0.00 88 1014.6
20260831055041 58 250 0.0 1.0 0.00 0.00 0.00 88 1014.6
20260831054540 58 250 0.0 1.0 0.00 0.00 0.00 88 1014.7
20260831054040 58 250 0.0 1.0 0.00 0.00 0.00 87 1014.7
20260831053540 58 250 0.0 2.0 0.00 0.00 0.00 87 1014.7
20260831053042 58 250 0.0 2.0 0.00 0.00 0.00 87 1014.8
20260831052539 58 250 0.0 1.0 0.00 0.00 0.00 87 1014.9
20260831052039 58 250 0.0 1.0 0.00 0.00 0.00 87 1014.9
20260831051539 58 250 0.0 2.0 0.00 0.00 0.00 86 1014.9
20260831051039 58 249 0.0 2.0 0.00 0.00 0.00 86 1014.9
20260831050542 58 249 0.0 1.0 0.00 0.00 0.00 86 1015.0
20260831050039 58 249 0.0 1.0 0.00 0.00 0.00 86 1015.1
20260831045539 58 249 0.0 2.0 0.00 0.00 0.00 86 1015.1
20260831045043 58 249 0.0 3.0 0.00 0.00 0.00 86 1015.1
20260831044539 59 249 0.0 3.0 0.00 0.00 0.00 86 1015.1
20260831044038 59 248 0.0 2.0 0.00 0.00 0.00 86 1015.2
20260831043538 59 248 0.0 3.0 0.00 0.00 0.00 86 1015.2
20260831043038 59 248 0.0 3.0 0.00 0.00 0.00 86 1015.2
20260831042539 59 243 1.0 3.0 0.00 0.00 0.00 86 1015.3
20260831042037 59 260 0.0 2.0 0.00 0.00 0.00 86 1015.3
20260831041549 59 260 0.0 1.0 0.00 0.00 0.00 85 1015.3
20260831041037 59 260 0.0 1.0 0.00 0.00 0.00 85 1015.3
20260831040537 59 260 0.0 2.0 0.00 0.00 0.00 85 1015.3
20260831040037 59 260 0.0 3.0 0.00 0.00 0.00 85 1015.4
20260831035538 59 260 0.0 3.0 0.00 0.00 0.00 85 1015.4
20260831035037 59 260 1.0 3.0 0.00 0.00 0.00 84 1015.3
20260831034538 59 260 0.0 2.0 0.00 0.00 0.00 84 1015.3
20260831034036 59 260 0.0 2.0 0.00 0.00 0.00 84 1015.3
20260831033536 59 260 0.0 2.0 0.00 0.00 0.00 83 1015.2
20260831033036 59 260 0.0 5.0 0.00 0.00 0.00 83 1015.3
20260831032536 59 260 1.0 5.0 0.00 0.00 0.00 83 1015.2
20260831032035 59 273 2.0 4.0 0.00 0.00 0.00 83 1015.2
20260831031542 60 273 0.0 3.0 0.00 0.00 0.00 83 1015.2
20260831031035 60 286 0.0 2.0 0.00 0.00 0.00 83 1015.2
20260831030538 60 286 0.0 2.0 0.00 0.00 0.00 83 1015.2
20260831030035 60 286 0.0 2.0 0.00 0.00 0.00 83 1015.1
20260831025535 60 286 0.0 2.0 0.00 0.00 0.00 83 1015.1
20260831025038 60 286 0.0 1.0 0.00 0.00 0.00 82 1015.1
20260831024537 60 286 0.0 1.0 0.00 0.00 0.00 81 1015.1
20260831024035 60 286 0.0 1.0 0.00 0.00 0.00 81 1015.2
20260831023534 60 286 0.0 2.0 0.00 0.00 0.00 80 1015.3
20260831023034 60 286 0.0 2.0 0.00 0.00 0.00 81 1015.3
20260831022533 61 286 0.0 2.0 0.00 0.00 0.00 81 1015.3
20260831022034 61 286 0.0 2.0 0.00 0.00 0.00 80 1015.3
20260831021534 61 287 0.0 2.0 0.00 0.00 0.00 81 1015.3
20260831021034 61 287 0.0 2.0 0.00 0.00 0.00 80 1015.3
20260831020534 61 288 0.0 2.0 0.00 0.00 0.00 80 1015.3
20260831020035 61 287 0.0 2.0 0.00 0.00 0.00 80 1015.3
20260831015533 61 287 0.0 2.0 0.00 0.00 0.00 80 1015.3
20260831015033 61 298 0.0 1.0 0.00 0.00 0.00 80 1015.3
20260831014532 61 298 0.0 2.0 0.00 0.00 0.00 80 1015.2
20260831014032 61 298 1.0 2.0 0.00 0.00 0.00 79 1015.3
20260831013534 61 228 0.0 2.0 0.00 0.00 0.00 80 1015.4
20260831013032 61 215 0.0 2.0 0.00 0.00 0.00 79 1015.4
20260831012531 61 215 0.0 3.0 0.00 0.00 0.00 78 1015.4
20260831012032 61 215 0.0 3.0 0.00 0.00 0.00 78 1015.4
20260831011532 61 173 0.0 3.0 0.00 0.00 0.00 78 1015.5
20260831011031 61 172 1.0 3.0 0.00 0.00 0.00 77 1015.5
20260831010632 61 173 0.0 2.0 0.00 0.00 0.00 78 1015.6
20260831010051 61 171 0.0 2.0 0.00 0.00 0.00 77 1015.6
20260831005547 61 171 0.0 2.0 0.00 0.00 0.00 76 1015.5
20260831005047 62 171 0.0 2.0 0.00 0.00 0.00 76 1015.5
20260831004547 62 171 0.0 2.0 0.00 0.00 0.00 77 1015.6
20260831004047 62 171 0.0 2.0 0.00 0.00 0.00 76 1015.6
20260831003546 62 171 0.0 2.0 0.00 0.00 0.00 76 1015.6
20260831003049 62 170 0.0 2.0 0.00 0.00 0.00 75 1015.6
20260831002545 62 170 0.0 2.0 0.00 0.00 0.00 74 1015.7
20260831002045 62 170 0.0 2.0 0.00 0.00 0.00 75 1015.7
20260831001545 62 169 0.0 2.0 0.00 0.00 0.00 74 1015.7
20260831001045 62 173 0.0 3.0 0.00 0.00 0.00 75 1015.7
20260831000511 62 173 1.0 3.0 0.00 0.00 0.00 74 1015.7
20260831000020 62 155 0.0 2.0 0.00 0.00 0.00 76 1015.7
20260830235511 62 155 0.0 2.0 0.00 0.00 0.00 77 1015.7
20260830235014 61 155 0.0 2.0 0.00 0.00 0.00 76 1015.8
20260830234512 61 155 0.0 1.0 0.00 0.00 0.00 78 1016.0
20260830234013 61 155 0.0 3.0 0.00 0.00 0.00 77 1016.0
20260830233509 61 155 0.0 3.0 0.00 0.00 0.00 76 1016.0
20260830233010 62 156 0.0 2.0 0.00 0.00 0.00 76 1016.0
20260830232511 61 156 0.0 2.0 0.00 0.00 0.00 77 1016.1
20260830232015 61 155 0.0 3.0 0.00 0.00 0.00 77 1016.1
20260830231510 61 156 0.0 2.0 0.00 0.00 0.00 76 1016.2
20260830231012 61 117 1.0 2.0 0.00 0.00 0.00 77 1016.2
20260830230509 61 115 0.0 2.0 0.00 0.00 0.00 76 1016.3
20260830230018 61 115 0.0 3.0 0.00 0.00 0.00 76 1016.3
20260830225509 61 115 1.0 3.0 0.00 0.00 0.00 75 1016.3
20260830225009 61 64 0.0 2.0 0.00 0.00 0.00 76 1016.4
20260830224508 61 65 0.0 3.0 0.00 0.00 0.00 75 1016.4
20260830224012 62 42 0.0 3.0 0.00 0.00 0.00 76 1016.4
20260830223509 61 164 0.0 3.0 0.00 0.00 0.00 77 1016.4
20260830223007 61 164 0.0 3.0 0.00 0.00 0.00 75 1016.4
20260830222508 62 166 1.0 3.0 0.00 0.00 0.00 76 1016.5
20260830222012 62 197 0.0 5.0 0.00 0.00 0.00 76 1016.6
20260830221507 62 197 1.0 5.0 0.00 0.00 0.00 74 1016.6
20260830221007 63 258 1.0 3.0 0.00 0.00 0.00 75 1016.5
20260830220507 63 297 0.0 4.0 0.00 0.00 0.00 75 1016.5
20260830220007 63 116 0.0 4.0 0.00 0.00 0.00 74 1016.4
20260830215507 63 26 0.0 4.0 0.00 0.00 0.00 75 1016.5
20260830215006 62 111 1.0 4.0 0.00 0.00 0.00 75 1016.6
20260830214505 62 142 1.0 4.0 0.00 0.00 0.00 76 1016.5
20260830214003 62 186 0.0 4.0 0.00 0.00 0.00 75 1016.5
20260830213505 62 130 1.0 5.0 0.00 0.00 0.00 75 1016.6
20260830213008 62 155 2.0 5.0 0.00 0.00 0.00 75 1016.6
20260830212503 62 152 1.0 6.0 0.00 0.00 0.00 75 1016.6
20260830212003 62 158 3.0 6.0 0.00 0.00 0.00 75 1016.5
20260830211503 61 149 1.0 5.0 0.00 0.00 0.00 76 1016.5
20260830211003 61 79 0.0 4.0 0.00 0.00 0.00 77 1016.5
20260830210503 61 27 1.0 4.0 0.00 0.00 0.00 76 1016.5
20260830210003 61 74 0.0 3.0 0.00 0.00 0.00 76 1016.5
20260830205505 61 138 1.0 3.0 0.00 0.00 0.00 76 1016.5
20260830205004 61 15 1.0 4.0 0.00 0.00 0.00 76 1016.5
20260830204502 61 181 1.0 4.0 0.00 0.00 0.00 76 1016.5
20260830204001 61 123 0.0 4.0 0.00 0.00 0.00 75 1016.5
20260830203501 61 146 0.0 4.0 0.00 0.00 0.00 75 1016.4
20260830203001 61 172 2.0 4.0 0.00 0.00 0.00 74 1016.5
20260830202501 61 146 1.0 4.0 0.00 0.00 0.00 75 1016.5
20260830202000 61 42 1.0 5.0 0.00 0.00 0.00 75 1016.5
20260830201502 61 163 0.0 5.0 0.00 0.00 0.00 76 1016.4
20260830201002 62 249 1.0 4.0 0.00 0.00 0.00 76 1016.4
20260830200604 61 162 1.0 4.0 0.00 0.00 0.00 76 1016.5
20260830200111 61 44 1.0 3.0 0.00 0.00 0.00 75 1016.4
20260830195601 61 154 1.0 3.0 0.00 0.00 0.00 75 1016.4
20260830195059 61 167 1.0 7.0 0.00 0.00 0.00 76 1016.4
20260830194609 61 156 0.0 7.0 0.00 0.00 0.00 77 1016.4
20260830194055 60 125 2.0 4.0 0.00 0.00 0.00 77 1016.4
20260830193555 60 199 1.0 5.0 0.00 0.00 0.00 78 1016.4
20260830193108 60 137 0.0 5.0 0.00 0.00 0.00 78 1016.5
20260830192555 60 213 2.0 4.0 0.00 0.00 0.00 77 1016.5
20260830192057 60 229 1.0 4.0 0.00 0.00 0.00 77 1016.5
20260830191602 60 196 1.0 4.0 0.00 0.00 0.00 78 1016.5
20260830191053 59 180 1.0 4.0 0.00 0.00 0.00 80 1016.5
20260830190552 59 188 1.0 4.0 0.00 0.00 0.00 80 1016.5
20260830190052 58 145 1.0 4.0 0.00 0.00 0.00 80 1016.5
20260830185552 58 38 1.0 4.0 0.00 0.00 0.00 80 1016.6
20260830185052 58 190 0.0 4.0 0.00 0.00 0.00 80 1016.6
20260830184551 58 129 1.0 4.0 0.00 0.00 0.00 80 1016.6
20260830184051 58 327 0.0 7.0 0.00 0.00 0.00 81 1016.6
20260830183551 58 329 0.0 7.0 0.00 0.00 0.00 81 1016.7
20260830183051 58 201 2.0 7.0 0.00 0.00 0.00 80 1016.7
20260830182552 58 216 0.0 4.0 0.00 0.00 0.00 80 1016.7
20260830182050 58 182 1.0 4.0 0.00 0.00 0.00 79 1016.7
20260830181552 59 111 1.0 6.0 0.00 0.00 0.00 80 1016.6
20260830181050 58 162 1.0 6.0 0.00 0.00 0.00 79 1016.5
20260830180551 58 261 1.0 7.0 0.00 0.00 0.00 79 1016.5
20260830180055 58 239 1.0 7.0 0.00 0.00 0.00 79 1016.5
20260830175549 58 252 1.0 5.0 0.00 0.00 0.00 79 1016.5
20260830175047 58 153 1.0 4.0 0.00 0.00 0.00 79 1016.4
20260830174553 58 180 0.0 6.0 0.00 0.00 0.00 80 1016.4
20260830174047 58 45 0.0 6.0 0.00 0.00 0.00 81 1016.3
20260830173544 58 148 2.0 5.0 0.00 0.00 0.00 80 1016.3
20260830173101 58 219 1.0 7.0 0.00 0.00 0.00 80 1016.2
20260830172544 58 268 2.0 7.0 0.00 0.00 0.00 81 1016.2
20260830172044 58 223 1.0 4.0 0.00 0.00 0.00 80 1016.2
20260830171546 58 255 1.0 5.0 0.00 0.00 0.00 81 1016.1
20260830171042 58 350 2.0 5.0 0.00 0.00 0.00 82 1016.1
20260830170522 57 290 1.0 4.0 0.00 0.00 0.00 83 1016.1
20260830170022 57 169 1.0 3.0 0.00 0.00 0.00 83 1016.1
20260830165520 58 273 1.0 3.0 0.00 0.00 0.00 85 1016.2
20260830165017 57 347 0.0 1.0 0.00 0.00 0.00 86 1016.2
20260830164553 57 347 0.0 3.0 0.00 0.00 0.00 86 1016.2
20260830164034 57 342 1.0 3.0 0.00 0.00 0.00 87 1016.3
20260830163535 56 247 0.0 2.0 0.00 0.00 0.00 86 1016.3
20260830163041 56 248 0.0 3.0 0.00 0.00 0.00 87 1016.3
20260830162533 56 246 0.0 3.0 0.00 0.00 0.00 88 1016.3
20260830162031 56 224 0.0 2.0 0.00 0.00 0.00 88 1016.3
20260830161530 56 224 0.0 2.0 0.00 0.00 0.00 89 1016.4
20260830161029 56 225 0.0 2.0 0.00 0.00 0.00 89 1016.3
20260830160530 55 96 0.0 2.0 0.00 0.00 0.00 89 1016.3
20260830160029 55 94 1.0 2.0 0.00 0.00 0.00 89 1016.3
20260830155529 55 358 0.0 2.0 0.00 0.00 0.00 89 1016.3
20260830155032 55 358 0.0 2.0 0.00 0.00 0.00 90 1016.2
20260830154533 55 355 0.0 0.0 0.00 0.00 0.00 90 1016.2
20260830154028 55 355 0.0 0.0 0.00 0.00 0.00 91 1016.2
20260830153526 55 355 0.0 0.0 0.00 0.00 0.00 90 1016.2
20260830153025 55 355 0.0 0.0 0.00 0.00 0.00 91 1016.1
20260830152524 54 355 0.0 0.0 0.00 0.00 0.00 91 1016.1
20260830152022 54 355 0.0 0.0 0.00 0.00 0.00 91 1016.1
20260830151521 54 355 0.0 0.0 0.00 0.00 0.00 91 1016.1
20260830151023 54 355 0.0 0.0 0.00 0.00 0.00 91 1016.2
20260830150521 54 355 0.0 0.0 0.00 0.00 0.00 91 1016.1
20260830150034 54 355 0.0 0.0 0.00 0.00 0.00 91 1016.1
20260830145520 54 355 0.0 0.0 0.00 0.00 0.00 91 1016.1
20260830145019 54 355 0.0 0.0 0.00 0.00 0.00 91 1016.1
20260830144518 54 355 0.0 0.0 0.00 0.00 0.00 90 1016.0
20260830144016 54 355 0.0 0.0 0.00 0.00 0.00 90 1016.0
20260830143517 54 355 0.0 0.0 0.00 0.00 0.00 90 1016.0
20260830143014 54 355 0.0 0.0 0.00 0.00 0.00 90 1015.9
20260830142518 54 355 0.0 0.0 0.00 0.00 0.00 90 1015.8
20260830142013 54 355 0.0 0.0 0.00 0.00 0.00 89 1015.7
20260830141512 54 355 0.0 0.0 0.00 0.00 0.00 89 1015.7
20260830141012 54 355 0.0 0.0 0.00 0.00 0.00 89 1015.7
20260830140517 54 355 0.0 0.0 0.00 0.00 0.00 89 1015.5
20260830140015 54 355 0.0 0.0 0.00 0.00 0.00 89 1015.5
20260830135514 54 355 0.0 0.0 0.00 0.00 0.00 89 1015.4
20260830135011 54 355 0.0 0.0 0.00 0.00 0.00 88 1015.4
20260830134520 54 355 0.0 0.0 0.00 0.00 0.00 88 1015.4
20260830134009 54 355 0.0 0.0 0.00 0.00 0.00 88 1015.4
20260830133509 54 355 0.0 0.0 0.00 0.00 0.00 88 1015.4
20260830133018 54 355 0.0 0.0 0.00 0.00 0.00 88 1015.4
20260830132508 54 355 0.0 0.0 0.00 0.00 0.00 88 1015.4
20260830132008 54 355 0.0 0.0 0.00 0.00 0.00 89 1015.3
20260830131511 54 355 0.0 0.0 0.00 0.00 0.00 89 1015.3
20260830131008 54 355 0.0 0.0 0.00 0.00 0.00 88 1015.3
20260830130509 54 355 0.0 0.0 0.00 0.00 0.00 88 1015.4
20260830130007 54 355 0.0 0.0 0.00 0.00 0.00 88 1015.4
20260830125507 54 355 0.0 0.0 0.00 0.00 0.00 88 1015.3
20260830125007 54 355 0.0 0.0 0.00 0.00 0.00 88 1015.3
20260830124506 54 355 0.0 0.0 0.00 0.00 0.00 88 1015.4
20260830124006 54 355 0.0 0.0 0.00 0.00 0.00 88 1015.4
20260830123508 54 355 0.0 0.0 0.00 0.00 0.00 87 1015.3
20260830123006 54 355 0.0 0.0 0.00 0.00 0.00 87 1015.4
20260830122506 54 355 0.0 0.0 0.00 0.00 0.00 88 1015.4
20260830122006 54 355 0.0 0.0 0.00 0.00 0.00 87 1015.4
20260830121505 54 355 0.0 0.0 0.00 0.00 0.00 87 1015.3
20260830121005 54 355 0.0 0.0 0.00 0.00 0.00 87 1015.3
20260830120505 54 355 0.0 0.0 0.00 0.00 0.00 87 1015.4
20260830120005 54 355 0.0 0.0 0.00 0.00 0.00 88 1015.4